START_TIME,STEP,MOV.,AL01,t_acc.,AL02,t_acc.,E37,t_acc.,H21,t_acc.
1989-08-27T12:00:34.850 ,5,0,0.,24.0,0.,24.0,0.,24.0,0.,24.0
1989-08-27T12:00:58.850 ,6,1,0.,24.0,1.,24.0,0.,24.0,0.,24.0
1989-08-27T12:01:22.850 ,6,0,0.,24.0,0.,24.0,0.,24.0,0.,24.0
1989-08-27T12:01:46.850 ,7,1,6.,24.0,0.,24.0,0.,24.0,0.,24.0
1989-08-27T12:02:10.850 ,7,0,38.,24.0,0.,24.0,0.,24.0,0.,24.0
1989-08-27T12:02:34.850 ,7,1,30.,24.0,0.,24.0,0.,24.0,0.,24.0
1989-08-27T12:02:58.850 ,7,0,27.,24.0,0.,24.0,0.,24.0,0.,24.0
1989-08-27T12:03:22.850 ,6,1,15.,24.0,0.,24.0,0.,24.0,0.,24.0
1989-08-27T12:03:46.850 ,6,0,0.,24.0,0.,24.0,0.,24.0,0.,24.0
1989-08-27T12:04:10.850 ,5,1,0.,24.0,0.,24.0,0.,24.0,0.,24.0
1989-08-27T12:04:34.850 ,5,0,0.,24.0,0.,24.0,0.,24.0,0.,24.0
1989-08-27T12:04:58.850 ,4,1,1.,24.0,0.,24.0,0.,24.0,0.,24.0
1989-08-27T12:05:22.850 ,4,0,0.,24.0,0.,24.0,0.,24.0,0.,24.0
1989-08-27T12:05:46.850 ,3,1,0.,24.0,0.,24.0,0.,24.0,0.,24.0
1989-08-27T12:06:10.850 ,3,0,0.,24.0,0.,24.0,0.,24.0,0.,24.0
1989-08-27T12:06:34.850 ,2,1,0.,24.0,1.,24.0,0.,24.0,0.,24.0
1989-08-27T12:06:58.850 ,2,0,0.,24.0,0.,24.0,0.,24.0,0.,24.0
1989-08-27T12:07:22.850 ,1,1,0.,24.0,0.,24.0,0.,24.0,0.,24.0
1989-08-27T12:07:46.850 ,1,0,0.,24.0,0.,24.0,0.,24.0,0.,24.0
1989-08-27T12:08:10.850 ,0,1,0.,24.0,0.,24.0,0.,24.0,0.,24.0
1989-08-27T12:08:34.850 ,0,0,0.,24.0,0.,24.0,0.,24.0,0.,24.0
1989-08-27T12:08:58.850 ,0,1,0.,24.0,0.,24.0,0.,24.0,0.,24.0
1989-08-27T12:09:22.850 ,0,0,0.,24.0,0.,24.0,0.,24.0,0.,24.0
1989-08-27T12:09:46.850 ,1,1,0.,24.0,0.,24.0,0.,24.0,0.,24.0
1989-08-27T12:10:10.850 ,1,0,0.,24.0,0.,24.0,0.,24.0,0.,24.0
1989-08-27T12:10:34.850 ,2,1,0.,24.0,0.,24.0,0.,24.0,0.,24.0
1989-08-27T12:10:58.850 ,2,0,0.,24.0,0.,24.0,0.,24.0,0.,24.0
1989-08-27T12:11:22.850 ,3,1,0.,24.0,0.,24.0,0.,24.0,0.,24.0
1989-08-27T12:11:46.850 ,3,0,0.,24.0,0.,24.0,0.,24.0,0.,24.0
1989-08-27T12:12:10.850 ,4,1,0.,24.0,0.,24.0,0.,24.0,0.,24.0
1989-08-27T12:12:34.850 ,4,0,0.,24.0,0.,24.0,0.,24.0,0.,24.0
1989-08-27T12:12:58.850 ,5,1,0.,24.0,0.,24.0,0.,24.0,0.,24.0
1989-08-27T12:13:22.850 ,5,0,1.,24.0,0.,24.0,0.,24.0,0.,24.0
1989-08-27T12:13:46.850 ,6,1,0.,24.0,0.,24.0,0.,24.0,0.,24.0
1989-08-27T12:14:10.850 ,6,0,0.,24.0,0.,24.0,0.,24.0,0.,24.0
1989-08-27T12:14:34.850 ,7,1,10.,24.0,0.,24.0,0.,24.0,0.,24.0
1989-08-27T12:14:58.850 ,7,0,33.,24.0,0.,24.0,0.,24.0,0.,24.0
1989-08-27T12:15:22.850 ,7,1,30.,24.0,0.,24.0,0.,24.0,0.,24.0
1989-08-27T12:15:46.850 ,7,0,20.,24.0,0.,24.0,0.,24.0,0.,24.0
1989-08-27T12:16:10.850 ,6,1,23.,24.0,0.,24.0,0.,24.0,0.,24.0
1989-08-27T12:16:34.850 ,6,0,0.,24.0,0.,24.0,0.,24.0,0.,24.0
1989-08-27T12:16:58.850 ,5,1,0.,24.0,0.,24.0,0.,24.0,0.,24.0
1989-08-27T12:17:22.850 ,5,0,0.,24.0,0.,24.0,0.,24.0,0.,24.0
1989-08-27T12:17:46.850 ,4,1,0.,24.0,0.,24.0,0.,24.0,0.,24.0
1989-08-27T12:18:10.850 ,4,0,0.,24.0,0.,24.0,0.,24.0,0.,24.0
1989-08-27T12:18:34.850 ,3,1,0.,24.0,0.,24.0,0.,24.0,0.,24.0
1989-08-27T12:18:58.850 ,3,0,0.,24.0,0.,24.0,0.,24.0,0.,24.0
1989-08-27T12:19:22.850 ,2,1,0.,24.0,0.,24.0,0.,24.0,0.,24.0
1989-08-27T12:19:46.850 ,2,0,0.,24.0,0.,24.0,0.,24.0,0.,24.0
1989-08-27T12:20:10.850 ,1,1,0.,24.0,0.,24.0,0.,24.0,0.,24.0
1989-08-27T12:20:34.850 ,1,0,0.,24.0,0.,24.0,0.,24.0,0.,24.0
1989-08-27T12:20:58.850 ,0,1,0.,24.0,0.,24.0,0.,24.0,0.,24.0
1989-08-27T12:21:22.850 ,0,0,0.,24.0,0.,24.0,0.,24.0,0.,24.0
1989-08-27T12:21:46.850 ,0,1,0.,24.0,0.,24.0,0.,24.0,0.,24.0
1989-08-27T12:22:10.850 ,0,0,0.,24.0,0.,24.0,0.,24.0,0.,24.0
1989-08-27T12:22:34.850 ,1,1,0.,24.0,0.,24.0,0.,24.0,0.,24.0
1989-08-27T12:22:58.850 ,1,0,0.,24.0,0.,24.0,0.,24.0,0.,24.0
1989-08-27T12:23:22.850 ,2,1,0.,24.0,0.,24.0,0.,24.0,0.,24.0
1989-08-27T12:23:46.850 ,2,0,0.,24.0,0.,24.0,0.,24.0,0.,24.0
1989-08-27T12:24:10.850 ,3,1,0.,24.0,0.,24.0,0.,24.0,0.,24.0
1989-08-27T12:24:34.850 ,3,0,0.,24.0,0.,24.0,0.,24.0,0.,24.0
1989-08-27T12:24:58.850 ,4,1,0.,24.0,0.,24.0,0.,24.0,0.,24.0
1989-08-27T12:25:22.850 ,4,0,0.,24.0,0.,24.0,0.,24.0,0.,24.0
1989-08-27T12:25:46.850 ,5,1,0.,24.0,0.,24.0,0.,24.0,0.,24.0
1989-08-27T12:26:10.850 ,5,0,0.,24.0,0.,24.0,0.,24.0,0.,24.0
1989-08-27T12:26:34.850 ,6,1,0.,24.0,0.,24.0,0.,24.0,0.,24.0
1989-08-27T12:26:58.850 ,6,0,0.,24.0,0.,24.0,0.,24.0,0.,24.0
1989-08-27T12:27:22.850 ,7,1,6.,24.0,0.,24.0,0.,24.0,0.,24.0
1989-08-27T12:27:46.850 ,7,0,28.,24.0,0.,24.0,0.,24.0,0.,24.0
1989-08-27T12:28:10.850 ,7,1,38.,24.0,0.,24.0,0.,24.0,0.,24.0
1989-08-27T12:28:34.850 ,7,0,24.,24.0,0.,24.0,0.,24.0,0.,24.0
1989-08-27T12:28:58.850 ,6,1,23.,24.0,0.,24.0,0.,24.0,0.,24.0
1989-08-27T12:29:22.850 ,6,0,0.,24.0,0.,24.0,0.,24.0,0.,24.0
1989-08-27T12:29:46.850 ,5,1,0.,24.0,0.,24.0,0.,24.0,0.,24.0
1989-08-27T12:30:10.850 ,5,0,0.,24.0,0.,24.0,0.,24.0,0.,24.0
1989-08-27T12:30:34.850 ,4,1,0.,24.0,0.,24.0,0.,24.0,0.,24.0
1989-08-27T12:30:58.850 ,4,0,0.,24.0,0.,24.0,0.,24.0,0.,24.0
1989-08-27T12:31:22.850 ,3,1,0.,24.0,0.,24.0,0.,24.0,0.,24.0
1989-08-27T12:31:46.850 ,3,0,0.,24.0,0.,24.0,0.,24.0,0.,24.0
1989-08-27T12:32:10.850 ,0,0,0.,24.0,1.,24.0,0.,24.0,0.,24.0
1989-08-27T12:32:34.850 ,0,0,,0,,0,,0,,0
1989-08-27T12:33:08.450 ,0,0,0.,24.0,0.,24.0,0.,24.0,0.,24.0
1989-08-27T12:33:22.850 ,0,0,0.,24.0,0.,24.0,0.,24.0,0.,24.0
1989-08-27T12:33:46.850 ,0,1,0.,24.0,1.,24.0,0.,24.0,0.,24.0
1989-08-27T12:34:10.850 ,0,0,,0,,0,,0,,0
1989-08-27T12:34:21.650 ,0,0,0.,24.0,0.,24.0,0.,24.0,0.,24.0
1989-08-27T12:34:34.850 ,0,1,0.,24.0,0.,24.0,0.,24.0,0.,24.0
1989-08-27T12:34:58.850 ,0,0,0.,24.0,0.,24.0,0.,24.0,0.,24.0
1989-08-27T12:35:22.850 ,1,1,0.,24.0,0.,24.0,0.,24.0,0.,24.0
1989-08-27T12:35:46.850 ,1,0,0.,24.0,0.,24.0,0.,24.0,0.,24.0
1989-08-27T12:36:10.850 ,2,1,1.,24.0,0.,24.0,0.,24.0,0.,24.0
1989-08-27T12:36:34.850 ,2,0,0.,24.0,0.,24.0,0.,24.0,0.,24.0
1989-08-27T12:36:58.850 ,3,1,0.,24.0,0.,24.0,0.,24.0,0.,24.0
1989-08-27T12:37:22.850 ,3,0,0.,24.0,0.,24.0,0.,24.0,0.,24.0
1989-08-27T12:37:46.850 ,4,1,0.,24.0,0.,24.0,0.,24.0,0.,24.0
1989-08-27T12:38:10.850 ,4,0,0.,24.0,0.,24.0,0.,24.0,0.,24.0
1989-08-27T12:38:34.850 ,5,1,0.,24.0,0.,24.0,0.,24.0,0.,24.0
1989-08-27T12:38:58.850 ,5,0,0.,24.0,0.,24.0,0.,24.0,0.,24.0
1989-08-27T12:39:22.850 ,6,1,0.,24.0,0.,24.0,0.,24.0,0.,24.0
1989-08-27T12:39:46.850 ,6,0,0.,24.0,0.,24.0,0.,24.0,0.,24.0
1989-08-27T12:40:10.850 ,7,1,5.,24.0,0.,24.0,0.,24.0,0.,24.0
1989-08-27T12:40:34.850 ,7,0,21.,24.0,0.,24.0,0.,24.0,0.,24.0
1989-08-27T12:40:58.850 ,7,1,19.,24.0,0.,24.0,0.,24.0,0.,24.0
1989-08-27T12:41:22.850 ,7,0,26.,24.0,0.,24.0,0.,24.0,0.,24.0
1989-08-27T12:41:46.850 ,6,1,16.,24.0,0.,24.0,0.,24.0,0.,24.0
1989-08-27T12:42:10.850 ,6,0,0.,24.0,0.,24.0,0.,24.0,0.,24.0
1989-08-27T12:42:34.850 ,5,1,0.,24.0,0.,24.0,0.,24.0,0.,24.0
1989-08-27T12:42:58.850 ,5,0,0.,24.0,0.,24.0,0.,24.0,0.,24.0
1989-08-27T12:43:22.850 ,4,1,1.,24.0,0.,24.0,0.,24.0,0.,24.0
1989-08-27T12:43:46.850 ,4,0,0.,24.0,0.,24.0,0.,24.0,0.,24.0
1989-08-27T12:44:10.850 ,3,1,0.,24.0,0.,24.0,0.,24.0,0.,24.0
1989-08-27T12:44:34.850 ,3,0,0.,24.0,0.,24.0,0.,24.0,0.,24.0
1989-08-27T12:44:58.850 ,2,1,0.,24.0,0.,24.0,0.,24.0,0.,24.0
1989-08-27T12:45:22.850 ,2,0,0.,24.0,0.,24.0,0.,24.0,0.,24.0
1989-08-27T12:45:46.850 ,1,1,0.,24.0,0.,24.0,0.,24.0,0.,24.0
1989-08-27T12:46:10.850 ,1,0,0.,24.0,0.,24.0,0.,24.0,0.,24.0
1989-08-27T12:46:34.850 ,0,1,0.,24.0,0.,24.0,0.,24.0,0.,24.0
1989-08-27T12:46:58.850 ,0,0,0.,24.0,0.,24.0,0.,24.0,0.,24.0
1989-08-27T12:47:22.850 ,0,1,0.,24.0,0.,24.0,0.,24.0,0.,24.0
1989-08-27T12:47:46.850 ,0,0,0.,24.0,0.,24.0,0.,24.0,0.,24.0
1989-08-27T12:48:10.850 ,1,1,0.,24.0,0.,24.0,0.,24.0,0.,24.0
1989-08-27T12:48:34.850 ,1,0,0.,24.0,0.,24.0,0.,24.0,0.,24.0
1989-08-27T12:48:58.850 ,2,1,0.,24.0,0.,24.0,0.,24.0,0.,24.0
1989-08-27T12:49:22.850 ,2,0,0.,24.0,0.,24.0,0.,24.0,0.,24.0
1989-08-27T12:49:46.850 ,3,1,0.,24.0,0.,24.0,0.,24.0,0.,24.0
1989-08-27T12:50:10.850 ,3,0,0.,24.0,0.,24.0,0.,24.0,0.,24.0
1989-08-27T12:50:34.850 ,4,1,0.,24.0,0.,24.0,0.,24.0,0.,24.0
1989-08-27T12:50:58.850 ,4,0,1.,24.0,0.,24.0,0.,24.0,0.,24.0
1989-08-27T12:51:22.850 ,5,1,0.,24.0,0.,24.0,0.,24.0,0.,24.0
1989-08-27T12:51:46.850 ,5,0,0.,24.0,0.,24.0,0.,24.0,0.,24.0
1989-08-27T12:52:10.850 ,6,1,0.,24.0,0.,24.0,0.,24.0,0.,24.0
1989-08-27T12:52:34.850 ,6,0,0.,24.0,0.,24.0,0.,24.0,0.,24.0
1989-08-27T12:52:58.850 ,7,1,1.,24.0,0.,24.0,0.,24.0,0.,24.0
1989-08-27T12:53:22.850 ,7,0,41.,24.0,0.,24.0,0.,24.0,0.,24.0
1989-08-27T12:53:46.850 ,7,1,27.,24.0,0.,24.0,0.,24.0,0.,24.0
1989-08-27T12:54:10.850 ,7,0,37.,24.0,1.,24.0,0.,24.0,0.,24.0
1989-08-27T12:54:34.850 ,6,1,31.,24.0,0.,24.0,0.,24.0,0.,24.0
1989-08-27T12:54:58.850 ,6,0,0.,24.0,0.,24.0,0.,24.0,0.,24.0
1989-08-27T12:55:22.850 ,5,1,0.,24.0,0.,24.0,0.,24.0,0.,24.0
1989-08-27T12:55:46.850 ,5,0,0.,24.0,0.,24.0,0.,24.0,0.,24.0
1989-08-27T12:56:10.850 ,4,1,0.,24.0,0.,24.0,0.,24.0,0.,24.0
1989-08-27T12:56:34.850 ,4,0,0.,24.0,0.,24.0,0.,24.0,0.,24.0
1989-08-27T12:56:58.850 ,3,1,0.,24.0,0.,24.0,0.,24.0,0.,24.0
1989-08-27T12:57:22.850 ,3,0,0.,24.0,0.,24.0,0.,24.0,0.,24.0
1989-08-27T12:57:46.850 ,2,1,0.,24.0,0.,24.0,0.,24.0,0.,24.0
1989-08-27T12:58:10.850 ,2,0,0.,24.0,0.,24.0,0.,24.0,0.,24.0
1989-08-27T12:58:34.850 ,1,1,0.,24.0,0.,24.0,0.,24.0,0.,24.0
1989-08-27T12:58:58.850 ,1,0,0.,24.0,0.,24.0,0.,24.0,0.,24.0
1989-08-27T12:59:22.850 ,0,1,0.,24.0,0.,24.0,0.,24.0,0.,24.0
1989-08-27T12:59:46.850 ,0,0,0.,24.0,0.,24.0,0.,24.0,0.,24.0
1989-08-27T13:00:10.850 ,0,1,0.,24.0,1.,24.0,0.,24.0,0.,24.0
1989-08-27T13:00:34.850 ,0,0,0.,24.0,0.,24.0,0.,24.0,0.,24.0
1989-08-27T13:00:58.850 ,1,1,0.,24.0,0.,24.0,0.,24.0,0.,24.0
1989-08-27T13:01:22.850 ,1,0,0.,24.0,0.,24.0,0.,24.0,0.,24.0
1989-08-27T13:01:46.850 ,2,1,0.,24.0,0.,24.0,0.,24.0,0.,24.0
1989-08-27T13:02:10.850 ,2,0,0.,24.0,0.,24.0,0.,24.0,0.,24.0
1989-08-27T13:02:34.850 ,3,1,0.,24.0,0.,24.0,0.,24.0,0.,24.0
1989-08-27T13:02:58.850 ,3,0,0.,24.0,0.,24.0,0.,24.0,0.,24.0
1989-08-27T13:03:22.850 ,4,1,0.,24.0,0.,24.0,0.,24.0,0.,24.0
1989-08-27T13:03:46.850 ,4,0,0.,24.0,1.,24.0,0.,24.0,0.,24.0
1989-08-27T13:04:10.850 ,5,1,0.,24.0,0.,24.0,0.,24.0,0.,24.0
1989-08-27T13:04:34.850 ,5,0,0.,24.0,0.,24.0,0.,24.0,0.,24.0
1989-08-27T13:04:58.850 ,6,1,0.,24.0,0.,24.0,0.,24.0,0.,24.0
1989-08-27T13:05:22.850 ,6,0,0.,24.0,0.,24.0,0.,24.0,0.,24.0
1989-08-27T13:05:46.850 ,7,1,15.,24.0,0.,24.0,0.,24.0,0.,24.0
1989-08-27T13:06:10.850 ,7,0,31.,24.0,0.,24.0,0.,24.0,0.,24.0
1989-08-27T13:06:34.850 ,7,1,36.,24.0,1.,24.0,0.,24.0,0.,24.0
1989-08-27T13:06:58.850 ,7,0,20.,24.0,0.,24.0,0.,24.0,0.,24.0
1989-08-27T13:07:22.850 ,6,1,12.,24.0,0.,24.0,0.,24.0,0.,24.0
1989-08-27T13:07:46.850 ,6,0,0.,24.0,0.,24.0,0.,24.0,0.,24.0
1989-08-27T13:08:10.850 ,5,1,0.,24.0,0.,24.0,0.,24.0,0.,24.0
1989-08-27T13:08:34.850 ,5,0,0.,24.0,0.,24.0,0.,24.0,0.,24.0
1989-08-27T13:08:58.840 ,4,1,0.,24.0,0.,24.0,0.,24.0,0.,24.0
1989-08-27T13:09:22.840 ,4,0,0.,24.0,0.,24.0,0.,24.0,0.,24.0
1989-08-27T13:09:46.840 ,3,1,0.,24.0,0.,24.0,0.,24.0,0.,24.0
1989-08-27T13:10:10.840 ,3,0,1.,24.0,0.,24.0,0.,24.0,0.,24.0
1989-08-27T13:10:34.840 ,2,1,1.,24.0,0.,24.0,0.,24.0,0.,24.0
1989-08-27T13:10:58.840 ,2,0,0.,24.0,0.,24.0,0.,24.0,0.,24.0
1989-08-27T13:11:22.840 ,1,1,0.,24.0,0.,24.0,0.,24.0,0.,24.0
1989-08-27T13:11:46.840 ,1,0,0.,24.0,1.,24.0,0.,24.0,0.,24.0
1989-08-27T13:12:10.840 ,0,1,1.,24.0,0.,24.0,0.,24.0,0.,24.0
1989-08-27T13:12:34.840 ,0,0,0.,24.0,0.,24.0,0.,24.0,0.,24.0
1989-08-27T13:13:51.040 ,0,0,0.,24.0,0.,24.0,0.,24.0,0.,24.0
1989-08-27T13:14:10.840 ,0,0,0.,24.0,0.,24.0,0.,24.0,0.,24.0
1989-08-27T13:14:34.840 ,2,1,0.,24.0,0.,24.0,0.,24.0,0.,24.0
1989-08-27T13:14:58.840 ,2,0,0.,24.0,0.,24.0,0.,24.0,0.,24.0
1989-08-27T13:15:22.840 ,3,1,0.,24.0,0.,24.0,0.,24.0,0.,24.0
1989-08-27T13:15:46.840 ,3,0,0.,24.0,0.,24.0,0.,24.0,0.,24.0
1989-08-27T13:16:10.840 ,4,1,0.,24.0,0.,24.0,0.,24.0,0.,24.0
1989-08-27T13:16:34.840 ,4,0,0.,24.0,0.,24.0,0.,24.0,0.,24.0
1989-08-27T13:16:58.840 ,5,1,0.,24.0,0.,24.0,0.,24.0,0.,24.0
1989-08-27T13:17:22.850 ,5,0,0.,24.0,1.,24.0,0.,24.0,0.,24.0
1989-08-27T13:17:46.850 ,6,1,0.,24.0,0.,24.0,0.,24.0,0.,24.0
1989-08-27T13:18:10.850 ,6,0,0.,24.0,0.,24.0,0.,24.0,0.,24.0
1989-08-27T13:18:34.840 ,7,1,8.,24.0,0.,24.0,0.,24.0,0.,24.0
1989-08-27T13:18:58.840 ,7,0,29.,24.0,0.,24.0,0.,24.0,0.,24.0
1989-08-27T13:19:22.840 ,7,1,30.,24.0,0.,24.0,0.,24.0,0.,24.0
1989-08-27T13:19:46.840 ,7,0,22.,24.0,0.,24.0,0.,24.0,0.,24.0
1989-08-27T13:20:10.840 ,6,1,22.,24.0,0.,24.0,0.,24.0,0.,24.0
1989-08-27T13:20:34.840 ,6,0,0.,24.0,0.,24.0,0.,24.0,0.,24.0
1989-08-27T13:20:58.840 ,5,1,0.,24.0,0.,24.0,0.,24.0,0.,24.0
1989-08-27T13:21:22.840 ,5,0,0.,24.0,0.,24.0,0.,24.0,0.,24.0
1989-08-27T13:21:46.840 ,4,1,0.,24.0,0.,24.0,0.,24.0,0.,24.0
1989-08-27T13:22:10.840 ,4,0,0.,24.0,1.,24.0,0.,24.0,0.,24.0
1989-08-27T13:22:34.840 ,3,1,0.,24.0,0.,24.0,0.,24.0,0.,24.0
1989-08-27T13:22:58.840 ,3,0,0.,24.0,0.,24.0,0.,24.0,0.,24.0
1989-08-27T13:23:22.840 ,2,1,1.,24.0,0.,24.0,0.,24.0,0.,24.0
1989-08-27T13:23:46.840 ,2,0,0.,24.0,0.,24.0,0.,24.0,0.,24.0
1989-08-27T13:24:10.840 ,1,1,0.,24.0,0.,24.0,0.,24.0,0.,24.0
1989-08-27T13:24:34.840 ,1,0,0.,24.0,0.,24.0,0.,24.0,0.,24.0
1989-08-27T13:24:58.840 ,0,1,0.,24.0,0.,24.0,0.,24.0,0.,24.0
1989-08-27T13:25:22.840 ,0,0,0.,24.0,0.,24.0,0.,24.0,0.,24.0
1989-08-27T13:25:46.840 ,0,1,0.,24.0,0.,24.0,0.,24.0,0.,24.0
1989-08-27T13:26:10.840 ,0,0,0.,24.0,0.,24.0,0.,24.0,0.,24.0
1989-08-27T13:26:34.840 ,1,1,0.,24.0,0.,24.0,0.,24.0,0.,24.0
1989-08-27T13:26:58.840 ,1,0,0.,24.0,0.,24.0,0.,24.0,0.,24.0
1989-08-27T13:27:22.840 ,2,1,0.,24.0,0.,24.0,0.,24.0,0.,24.0
1989-08-27T13:27:46.840 ,2,0,0.,24.0,0.,24.0,0.,24.0,0.,24.0
1989-08-27T13:28:10.840 ,3,1,0.,24.0,0.,24.0,0.,24.0,0.,24.0
1989-08-27T13:28:34.840 ,3,0,0.,24.0,0.,24.0,0.,24.0,0.,24.0
1989-08-27T13:28:58.840 ,4,1,0.,24.0,0.,24.0,0.,24.0,0.,24.0
1989-08-27T13:29:22.840 ,4,0,0.,24.0,0.,24.0,0.,24.0,0.,24.0
1989-08-27T13:29:46.840 ,5,1,0.,24.0,0.,24.0,0.,24.0,0.,24.0
1989-08-27T13:30:10.840 ,5,0,0.,24.0,0.,24.0,0.,24.0,0.,24.0
1989-08-27T13:30:34.840 ,6,1,0.,24.0,0.,24.0,0.,24.0,0.,24.0
1989-08-27T13:30:58.840 ,6,0,0.,24.0,0.,24.0,0.,24.0,0.,24.0
1989-08-27T13:31:22.840 ,7,1,16.,24.0,0.,24.0,0.,24.0,0.,24.0
1989-08-27T13:31:46.840 ,7,0,35.,24.0,0.,24.0,0.,24.0,0.,24.0
1989-08-27T13:32:10.840 ,7,1,33.,24.0,0.,24.0,0.,24.0,0.,24.0
1989-08-27T13:32:34.840 ,7,0,19.,24.0,0.,24.0,0.,24.0,0.,24.0
1989-08-27T13:32:58.840 ,6,1,22.,24.0,0.,24.0,0.,24.0,0.,24.0
1989-08-27T13:33:22.840 ,6,0,0.,24.0,0.,24.0,0.,24.0,0.,24.0
1989-08-27T13:33:46.840 ,5,1,0.,24.0,0.,24.0,0.,24.0,0.,24.0
1989-08-27T13:34:10.840 ,5,0,0.,24.0,0.,24.0,0.,24.0,0.,24.0
1989-08-27T13:34:34.840 ,4,1,0.,24.0,0.,24.0,0.,24.0,0.,24.0
1989-08-27T13:34:58.840 ,4,0,0.,24.0,0.,24.0,0.,24.0,0.,24.0
1989-08-27T13:35:22.840 ,3,1,0.,24.0,0.,24.0,0.,24.0,0.,24.0
1989-08-27T13:35:46.840 ,3,0,0.,24.0,0.,24.0,0.,24.0,0.,24.0
1989-08-27T13:36:10.840 ,2,1,0.,24.0,0.,24.0,0.,24.0,0.,24.0
1989-08-27T13:36:34.840 ,2,0,0.,24.0,0.,24.0,0.,24.0,0.,24.0
1989-08-27T13:36:58.840 ,1,1,0.,24.0,0.,24.0,0.,24.0,0.,24.0
1989-08-27T13:37:22.840 ,1,0,0.,24.0,0.,24.0,0.,24.0,0.,24.0
1989-08-27T13:37:46.840 ,0,1,0.,24.0,0.,24.0,0.,24.0,0.,24.0
1989-08-27T13:38:10.840 ,0,0,0.,24.0,0.,24.0,0.,24.0,0.,24.0
1989-08-27T13:38:34.840 ,0,1,1.,24.0,0.,24.0,0.,24.0,0.,24.0
1989-08-27T13:38:58.840 ,0,0,0.,24.0,0.,24.0,0.,24.0,0.,24.0
1989-08-27T13:39:22.840 ,1,1,0.,24.0,0.,24.0,0.,24.0,0.,24.0
1989-08-27T13:39:46.840 ,1,0,0.,24.0,0.,24.0,0.,24.0,0.,24.0
1989-08-27T13:40:10.840 ,2,1,0.,24.0,0.,24.0,0.,24.0,0.,24.0
1989-08-27T13:40:34.840 ,2,0,0.,24.0,0.,24.0,0.,24.0,0.,24.0
1989-08-27T13:40:58.840 ,3,1,0.,24.0,0.,24.0,0.,24.0,0.,24.0
1989-08-27T13:41:22.840 ,0,0,0.,24.0,0.,24.0,0.,24.0,0.,24.0
1989-08-27T13:41:46.840 ,4,1,0.,24.0,0.,24.0,0.,24.0,0.,24.0
1989-08-27T13:42:10.840 ,4,0,0.,24.0,0.,24.0,0.,24.0,0.,24.0
1989-08-27T13:42:34.840 ,5,1,0.,24.0,0.,24.0,0.,24.0,0.,24.0
1989-08-27T13:42:58.840 ,5,0,0.,24.0,0.,24.0,0.,24.0,0.,24.0
1989-08-27T13:43:22.840 ,6,1,0.,24.0,0.,24.0,0.,24.0,0.,24.0
1989-08-27T13:43:46.840 ,6,0,0.,24.0,0.,24.0,0.,24.0,0.,24.0
1989-08-27T13:44:10.840 ,7,1,6.,24.0,0.,24.0,0.,24.0,0.,24.0
1989-08-27T13:44:34.840 ,7,0,33.,24.0,0.,24.0,0.,24.0,0.,24.0
1989-08-27T13:44:58.840 ,7,1,29.,24.0,0.,24.0,0.,24.0,0.,24.0
1989-08-27T13:45:22.840 ,7,0,28.,24.0,0.,24.0,0.,24.0,0.,24.0
1989-08-27T13:45:46.840 ,6,1,23.,24.0,0.,24.0,0.,24.0,0.,24.0
1989-08-27T13:46:10.840 ,6,0,0.,24.0,0.,24.0,0.,24.0,0.,24.0
1989-08-27T13:46:34.840 ,5,1,0.,24.0,0.,24.0,0.,24.0,0.,24.0
1989-08-27T13:46:58.840 ,5,0,0.,24.0,0.,24.0,0.,24.0,0.,24.0
1989-08-27T13:47:22.840 ,4,1,0.,24.0,0.,24.0,0.,24.0,0.,24.0
1989-08-27T13:47:46.840 ,4,0,0.,24.0,0.,24.0,0.,24.0,0.,24.0
1989-08-27T13:48:10.840 ,3,1,0.,24.0,0.,24.0,0.,24.0,0.,24.0
1989-08-27T13:48:34.840 ,3,0,0.,24.0,0.,24.0,0.,24.0,0.,24.0
1989-08-27T13:48:58.840 ,2,1,1.,24.0,0.,24.0,0.,24.0,0.,24.0
1989-08-27T13:49:22.840 ,2,0,0.,24.0,0.,24.0,0.,24.0,0.,24.0
1989-08-27T13:49:46.840 ,1,1,0.,24.0,0.,24.0,0.,24.0,0.,24.0
1989-08-27T13:50:10.840 ,1,0,0.,24.0,0.,24.0,0.,24.0,0.,24.0
1989-08-27T13:50:34.840 ,0,1,0.,24.0,0.,24.0,0.,24.0,0.,24.0
1989-08-27T13:50:58.840 ,0,0,0.,24.0,0.,24.0,0.,24.0,0.,24.0
1989-08-27T13:51:22.840 ,0,1,0.,24.0,0.,24.0,0.,24.0,0.,24.0
1989-08-27T13:51:46.840 ,0,0,0.,24.0,0.,24.0,0.,24.0,0.,24.0
1989-08-27T13:52:10.840 ,1,1,0.,24.0,0.,24.0,0.,24.0,0.,24.0
1989-08-27T13:52:34.840 ,1,0,0.,24.0,0.,24.0,0.,24.0,0.,24.0
1989-08-27T13:52:58.840 ,2,1,0.,24.0,0.,24.0,0.,24.0,0.,24.0
1989-08-27T13:53:22.840 ,2,0,0.,24.0,0.,24.0,0.,24.0,0.,24.0
1989-08-27T13:53:46.840 ,3,1,0.,24.0,0.,24.0,0.,24.0,0.,24.0
1989-08-27T13:54:10.840 ,3,0,0.,24.0,0.,24.0,0.,24.0,0.,24.0
1989-08-27T13:54:34.840 ,4,1,0.,24.0,0.,24.0,0.,24.0,0.,24.0
1989-08-27T13:54:58.840 ,4,0,0.,24.0,0.,24.0,0.,24.0,0.,24.0
1989-08-27T13:55:22.840 ,5,1,0.,24.0,0.,24.0,0.,24.0,0.,24.0
1989-08-27T13:55:46.840 ,5,0,0.,24.0,0.,24.0,0.,24.0,0.,24.0
1989-08-27T13:56:10.840 ,6,1,0.,24.0,0.,24.0,0.,24.0,0.,24.0
1989-08-27T13:56:34.840 ,6,0,0.,24.0,0.,24.0,0.,24.0,0.,24.0
1989-08-27T13:56:58.840 ,7,1,4.,24.0,0.,24.0,0.,24.0,0.,24.0
1989-08-27T13:57:22.840 ,7,0,26.,24.0,0.,24.0,0.,24.0,0.,24.0
1989-08-27T13:57:46.840 ,7,1,27.,24.0,0.,24.0,0.,24.0,0.,24.0
1989-08-27T13:58:10.840 ,7,0,29.,24.0,0.,24.0,0.,24.0,0.,24.0
1989-08-27T13:58:34.840 ,6,1,28.,24.0,0.,24.0,0.,24.0,0.,24.0
1989-08-27T13:58:58.840 ,6,0,0.,24.0,0.,24.0,0.,24.0,0.,24.0
1989-08-27T13:59:22.840 ,5,1,0.,24.0,0.,24.0,0.,24.0,0.,24.0
1989-08-27T13:59:46.840 ,5,0,0.,24.0,0.,24.0,0.,24.0,0.,24.0
1989-08-27T14:00:10.840 ,4,1,0.,24.0,0.,24.0,0.,24.0,0.,24.0
1989-08-27T14:00:34.840 ,4,0,0.,24.0,0.,24.0,0.,24.0,0.,24.0
1989-08-27T14:00:58.840 ,3,1,0.,24.0,0.,24.0,0.,24.0,0.,24.0
1989-08-27T14:01:22.840 ,3,0,0.,24.0,0.,24.0,0.,24.0,0.,24.0
1989-08-27T14:01:46.840 ,2,1,0.,24.0,0.,24.0,0.,24.0,0.,24.0
1989-08-27T14:02:10.840 ,2,0,0.,24.0,0.,24.0,0.,24.0,0.,24.0
1989-08-27T14:02:34.840 ,1,1,0.,24.0,0.,24.0,0.,24.0,0.,24.0
1989-08-27T14:02:58.840 ,1,0,0.,24.0,0.,24.0,0.,24.0,0.,24.0
1989-08-27T14:03:22.840 ,0,1,0.,24.0,0.,24.0,0.,24.0,0.,24.0
1989-08-27T14:03:46.840 ,0,0,0.,24.0,0.,24.0,0.,24.0,0.,24.0
1989-08-27T14:04:10.840 ,0,1,0.,24.0,0.,24.0,0.,24.0,0.,24.0
1989-08-27T14:04:34.840 ,0,0,0.,24.0,0.,24.0,0.,24.0,0.,24.0
1989-08-27T14:04:58.840 ,1,1,0.,24.0,0.,24.0,0.,24.0,0.,24.0
1989-08-27T14:05:22.840 ,1,0,0.,24.0,0.,24.0,0.,24.0,0.,24.0
1989-08-27T14:05:46.840 ,2,1,0.,24.0,0.,24.0,0.,24.0,0.,24.0
1989-08-27T14:06:10.840 ,2,0,0.,24.0,0.,24.0,0.,24.0,0.,24.0
1989-08-27T14:06:34.840 ,3,1,0.,24.0,0.,24.0,0.,24.0,0.,24.0
1989-08-27T14:06:58.840 ,3,0,0.,24.0,0.,24.0,0.,24.0,0.,24.0
1989-08-27T14:07:22.840 ,4,1,0.,24.0,0.,24.0,0.,24.0,0.,24.0
1989-08-27T14:07:46.840 ,4,0,0.,24.0,0.,24.0,0.,24.0,0.,24.0
1989-08-27T14:08:10.840 ,5,1,0.,24.0,0.,24.0,0.,24.0,0.,24.0
1989-08-27T14:08:34.840 ,5,0,0.,24.0,0.,24.0,0.,24.0,0.,24.0
1989-08-27T14:08:58.840 ,6,1,0.,24.0,0.,24.0,0.,24.0,0.,24.0
1989-08-27T14:09:22.840 ,6,0,0.,24.0,0.,24.0,0.,24.0,0.,24.0
1989-08-27T14:09:46.840 ,7,1,9.,24.0,0.,24.0,0.,24.0,0.,24.0
1989-08-27T14:10:10.840 ,7,0,31.,24.0,0.,24.0,0.,24.0,0.,24.0
1989-08-27T14:10:34.840 ,7,1,29.,24.0,0.,24.0,0.,24.0,0.,24.0
1989-08-27T14:10:58.840 ,7,0,34.,24.0,0.,24.0,0.,24.0,0.,24.0
1989-08-27T14:11:22.840 ,6,1,26.,24.0,0.,24.0,0.,24.0,0.,24.0
1989-08-27T14:11:46.840 ,6,0,0.,24.0,0.,24.0,0.,24.0,0.,24.0
1989-08-27T14:12:10.840 ,5,1,0.,24.0,0.,24.0,0.,24.0,0.,24.0
1989-08-27T14:12:34.840 ,5,0,0.,24.0,0.,24.0,0.,24.0,0.,24.0
1989-08-27T14:12:58.840 ,4,1,0.,24.0,0.,24.0,0.,24.0,0.,24.0
1989-08-27T14:13:22.840 ,4,0,0.,24.0,0.,24.0,0.,24.0,0.,24.0
1989-08-27T14:13:46.840 ,3,1,1.,24.0,0.,24.0,0.,24.0,0.,24.0
1989-08-27T14:14:10.840 ,3,0,0.,24.0,2.,24.0,0.,24.0,0.,24.0
1989-08-27T14:14:34.840 ,2,1,0.,24.0,0.,24.0,0.,24.0,0.,24.0
1989-08-27T14:14:58.840 ,2,0,0.,24.0,0.,24.0,0.,24.0,0.,24.0
1989-08-27T14:15:22.840 ,1,1,0.,24.0,0.,24.0,0.,24.0,0.,24.0
1989-08-27T14:15:46.840 ,1,0,0.,24.0,0.,24.0,0.,24.0,0.,24.0
1989-08-27T14:16:10.840 ,0,1,0.,24.0,0.,24.0,0.,24.0,0.,24.0
1989-08-27T14:16:34.840 ,0,0,0.,24.0,0.,24.0,0.,24.0,0.,24.0
1989-08-27T14:16:58.840 ,0,1,0.,24.0,0.,24.0,0.,24.0,0.,24.0
1989-08-27T14:17:22.840 ,0,0,0.,24.0,0.,24.0,0.,24.0,0.,24.0
1989-08-27T14:17:46.840 ,1,1,0.,24.0,0.,24.0,0.,24.0,0.,24.0
1989-08-27T14:18:10.840 ,1,0,0.,24.0,0.,24.0,0.,24.0,0.,24.0
1989-08-27T14:18:34.840 ,2,1,0.,24.0,0.,24.0,0.,24.0,0.,24.0
1989-08-27T14:18:58.840 ,2,0,0.,24.0,0.,24.0,0.,24.0,0.,24.0
1989-08-27T14:19:22.840 ,3,1,0.,24.0,0.,24.0,0.,24.0,0.,24.0
1989-08-27T14:19:46.840 ,3,0,0.,24.0,0.,24.0,0.,24.0,0.,24.0
1989-08-27T14:20:10.840 ,4,1,0.,24.0,0.,24.0,0.,24.0,0.,24.0
1989-08-27T14:20:34.840 ,4,0,0.,24.0,0.,24.0,0.,24.0,0.,24.0
1989-08-27T14:20:58.840 ,5,1,0.,24.0,0.,24.0,0.,24.0,0.,24.0
1989-08-27T14:21:22.840 ,5,0,0.,24.0,0.,24.0,0.,24.0,0.,24.0
1989-08-27T14:21:46.840 ,6,1,0.,24.0,0.,24.0,0.,24.0,0.,24.0
1989-08-27T14:22:10.840 ,6,0,0.,24.0,0.,24.0,0.,24.0,0.,24.0
1989-08-27T14:22:34.840 ,7,1,8.,24.0,0.,24.0,0.,24.0,0.,24.0
1989-08-27T14:22:58.840 ,7,0,28.,24.0,0.,24.0,0.,24.0,0.,24.0
1989-08-27T14:23:22.840 ,7,1,31.,24.0,0.,24.0,0.,24.0,0.,24.0
1989-08-27T14:23:46.840 ,7,0,26.,24.0,0.,24.0,0.,24.0,0.,24.0
1989-08-27T14:24:10.840 ,6,1,22.,24.0,0.,24.0,0.,24.0,0.,24.0
1989-08-27T14:24:34.840 ,6,0,0.,24.0,0.,24.0,0.,24.0,0.,24.0
1989-08-27T14:24:58.840 ,5,1,0.,24.0,0.,24.0,0.,24.0,0.,24.0
1989-08-27T14:25:22.840 ,5,0,0.,24.0,0.,24.0,0.,24.0,0.,24.0
1989-08-27T14:25:46.840 ,4,1,0.,24.0,0.,24.0,0.,24.0,0.,24.0
1989-08-27T14:26:10.840 ,4,0,0.,24.0,0.,24.0,0.,24.0,0.,24.0
1989-08-27T14:26:34.840 ,3,1,0.,24.0,0.,24.0,0.,24.0,0.,24.0
1989-08-27T14:26:58.840 ,3,0,1.,24.0,0.,24.0,0.,24.0,0.,24.0
1989-08-27T14:27:21.040 ,0,0,,0,,0,,0,,0
1989-08-27T14:27:22.840 ,2,1,0.,24.0,0.,24.0,0.,24.0,0.,24.0
1989-08-27T14:27:46.840 ,2,0,0.,24.0,0.,24.0,0.,24.0,0.,24.0
1989-08-27T14:27:23.440 ,0,0,,0,,0,,0,,0
1989-08-27T14:27:46.840 ,0,0,,0,,0,,0,,0
1989-08-27T14:28:10.840 ,1,1,0.,24.0,0.,24.0,0.,24.0,0.,24.0
1989-08-27T14:28:34.840 ,1,0,0.,24.0,0.,24.0,0.,24.0,0.,24.0
1989-08-27T14:28:58.840 ,0,1,1.,24.0,0.,24.0,0.,24.0,0.,24.0
1989-08-27T14:29:22.840 ,0,0,0.,24.0,0.,24.0,0.,24.0,0.,24.0
1989-08-27T14:29:46.840 ,0,1,0.,24.0,0.,24.0,0.,24.0,0.,24.0
1989-08-27T14:30:10.840 ,0,0,0.,24.0,0.,24.0,0.,24.0,0.,24.0
1989-08-27T14:30:34.840 ,1,1,0.,24.0,0.,24.0,0.,24.0,0.,24.0
1989-08-27T14:30:58.840 ,1,0,0.,24.0,0.,24.0,0.,24.0,0.,24.0
1989-08-27T14:31:22.840 ,2,1,0.,24.0,1.,24.0,0.,24.0,0.,24.0
1989-08-27T14:31:46.840 ,2,0,0.,24.0,0.,24.0,0.,24.0,0.,24.0
1989-08-27T14:32:10.840 ,3,1,0.,24.0,0.,24.0,0.,24.0,0.,24.0
1989-08-27T14:32:34.840 ,3,0,0.,24.0,0.,24.0,0.,24.0,0.,24.0
1989-08-27T14:32:58.840 ,4,1,0.,24.0,0.,24.0,0.,24.0,0.,24.0
1989-08-27T14:33:22.840 ,4,0,0.,24.0,0.,24.0,0.,24.0,0.,24.0
1989-08-27T14:33:46.840 ,5,1,0.,24.0,0.,24.0,0.,24.0,0.,24.0